QPF
0.02 0.02 0.03 0.03 0.02 0.01 0.01 0.01 0.02 0.03 0.03 0.01 0.01 0.02 0.03 0.02 0.03 0.03 0.02 0.02 0.04 0.05 0.06 0.08 0.08 0.07 0.06 0.05 0.04 0.03 0.02 0.02 0.03 0.02 0.02 0.02 0.01 0.02 0.02 0.01 0.01 0.01 0.01
0.04 0.05 0.04 0.03 0.02 0.02 0.02 0.02 0.02 0.02 0.03 0.03 0.02 0.03 0.03 0.02 0.04 0.04 0.02 0.02 0.04 0.05 0.05 0.07 0.09 0.09 0.07 0.07 0.07 0.06 0.05 0.05 0.05 0.04 0.03 0.03 0.03 0.03 0.03 0.02 0.02 0.02 0.03
0.06 0.05 0.05 0.05 0.03 0.03 0.04 0.04 0.03 0.03 0.04 0.04 0.05 0.05 0.03 0.02 0.04 0.04 0.04 0.04 0.03 0.05 0.07 0.08 0.09 0.11 0.12 0.11 0.10 0.09 0.08 0.08 0.09 0.07 0.05 0.04 0.03 0.04 0.04 0.04 0.04 0.04 0.05
0.07 0.06 0.06 0.05 0.04 0.04 0.04 0.05 0.05 0.06 0.05 0.04 0.05 0.05 0.04 0.04 0.03 0.04 0.06 0.06 0.04 0.03 0.05 0.08 0.09 0.11 0.15 0.15 0.17 0.18 0.14 0.11 0.11 0.11 0.10 0.07 0.07 0.06 0.05 0.05 0.05 0.05 0.04
0.07 0.07 0.06 0.06 0.05 0.04 0.03 0.02 0.04 0.05 0.05 0.05 0.04 0.06 0.06 0.05 0.06 0.06 0.07 0.07 0.05 0.04 0.05 0.07 0.11 0.13 0.13 0.15 0.18 0.22 0.22 0.21 0.19 0.17 0.16 0.14 0.12 0.10 0.09 0.08 0.07 0.06 0.06
0.07 0.07 0.06 0.06 0.06 0.06 0.03 0.03 0.04 0.04 0.03 0.04 0.06 0.05 0.05 0.04 0.04 0.05 0.06 0.05 0.06 0.06 0.06 0.06 0.10 0.13 0.15 0.17 0.17 0.20 0.23 0.20 0.18 0.19 0.18 0.15 0.12 0.11 0.10 0.09 0.09 0.07 0.08
0.06 0.07 0.07 0.06 0.06 0.06 0.06 0.04 0.02 0.02 0.03 0.04 0.03 0.03 0.03 0.03 0.03 0.03 0.04 0.04 0.05 0.05 0.06 0.06 0.08 0.09 0.12 0.16 0.18 0.21 0.25 0.18 0.16 0.16 0.13 0.11 0.11 0.11 0.09 0.08 0.06 0.05 0.04
0.07 0.08 0.10 0.07 0.05 0.05 0.05 0.04 0.04 0.04 0.03 0.05 0.04 0.03 0.02 0.02 0.03 0.04 0.04 0.05 0.06 0.08 0.09 0.11 0.12 0.14 0.14 0.11 0.10 0.12 0.17 0.18 0.19 0.17 0.13 0.13 0.14 0.12 0.11 0.10 0.09 0.08 0.06
0.06 0.07 0.08 0.06 0.04 0.02 0.03 0.03 0.03 0.03 0.03 0.04 0.04 0.04 0.03 0.02 0.03 0.05 0.06 0.08 0.10 0.13 0.14 0.12 0.09 0.08 0.07 0.07 0.09 0.12 0.12 0.13 0.15 0.17 0.17 0.16 0.16 0.15 0.13 0.11 0.10 0.09 0.07
0.05 0.06 0.08 0.04 0.03 0.03 0.03 0.02 0.03 0.03 0.03 0.04 0.04 0.03 0.02 0.02 0.03 0.04 0.05 0.06 0.07 0.08 0.09 0.08 0.07 0.06 0.05 0.06 0.08 0.11 0.14 0.15 0.13 0.14 0.17 0.17 0.18 0.18 0.14 0.13 0.14 0.17 0.17
0.05 0.06 0.06 0.02 0.01 0.02 0.03 0.03 0.03 0.03 0.03 0.03 0.03 0.02 0.03 0.03 0.03 0.02 0.02 0.06 0.08 0.10 0.11 0.09 0.06 0.05 0.05 0.06 0.06 0.08 0.12 0.13 0.12 0.13 0.12 0.12 0.15 0.17 0.16 0.15 0.16 0.19 0.20
0.03 0.02 0.01 0.02 0.01 0.01 0.03 0.03 0.03 0.04 0.04 0.03 0.02 0.02 0.03 0.04 0.03 0.03 0.03 0.06 0.06 0.07 0.10 0.10 0.04 0.05 0.06 0.08 0.09 0.12 0.14 0.16 0.14 0.13 0.13 0.13 0.13 0.14 0.15 0.18 0.20 0.21 0.19
0.01 0.01 0.01 0.01 0.01 0.01 0.03 0.03 0.03 0.04 0.04 0.03 0.03 0.04 0.04 0.04 0.04 0.03 0.04 0.04 0.04 0.03 0.03 0.05 0.06 0.07 0.09 0.12 0.13 0.15 0.18 0.20 0.19 0.18 0.18 0.20 0.21 0.20 0.19 0.21 0.23 0.23 0.21
0.00 0.01 0.02 0.01 0.02 0.02 0.03 0.03 0.03 0.03 0.02 0.03 0.04 0.04 0.06 0.05 0.04 0.03 0.04 0.05 0.05 0.03 0.04 0.05 0.05 0.07 0.08 0.10 0.13 0.14 0.15 0.16 0.15 0.17 0.17 0.18 0.21 0.23 0.23 0.22 0.22 0.22 0.21
0.01 0.01 0.01 0.01 0.02 0.02 0.02 0.03 0.03 0.04 0.05 0.05 0.05 0.05 0.05 0.04 0.04 0.04 0.05 0.06 0.07 0.06 0.07 0.08 0.06 0.07 0.07 0.08 0.11 0.11 0.11 0.11 0.09 0.08 0.10 0.12 0.12 0.12 0.12 0.12 0.13 0.15 0.16
0.01 0.01 0.01 0.02 0.03 0.04 0.05 0.05 0.04 0.03 0.04 0.04 0.04 0.03 0.03 0.03 0.03 0.03 0.04 0.06 0.08 0.08 0.08 0.08 0.08 0.08 0.08 0.08 0.10 0.09 0.08 0.07 0.05 0.05 0.06 0.09 0.11 0.11 0.11 0.11 0.09 0.07 0.08
0.00 0.00 0.01 0.02 0.03 0.04 0.05 0.06 0.04 0.04 0.04 0.04 0.04 0.03 0.02 0.02 0.03 0.03 0.04 0.06 0.06 0.06 0.07 0.08 0.10 0.11 0.11 0.10 0.09 0.06 0.05 0.04 0.03 0.04 0.04 0.05 0.07 0.07 0.07 0.07 0.06 0.04 0.05
0.01 0.01 0.02 0.02 0.03 0.03 0.03 0.04 0.03 0.03 0.03 0.03 0.04 0.03 0.02 0.03 0.03 0.03 0.04 0.04 0.04 0.04 0.04 0.04 0.04 0.05 0.06 0.06 0.04 0.03 0.03 0.03 0.03 0.05 0.05 0.06 0.07 0.08 0.07 0.05 0.05 0.05 0.06
0.01 0.02 0.02 0.03 0.03 0.03 0.02 0.02 0.02 0.02 0.01 0.02 0.03 0.03 0.04 0.03 0.03 0.03 0.03 0.03 0.05 0.06 0.04 0.03 0.02 0.02 0.03 0.02 0.02 0.02 0.03 0.03 0.04 0.06 0.06 0.07 0.08 0.09 0.09 0.08 0.07 0.07 0.06
0.01 0.02 0.02 0.02 0.02 0.02 0.01 0.01 0.01 0.01 0.01 0.01 0.02 0.03 0.06 0.06 0.04 0.03 0.02 0.02 0.05 0.07 0.05 0.03 0.02 0.02 0.02 0.02 0.02 0.02 0.03 0.05 0.06 0.07 0.07 0.07 0.07 0.07 0.07 0.07 0.07 0.06 0.06
0.01 0.00 0.00 0.00 0.01 0.01 0.02 0.01 0.01 0.01 0.01 0.01 0.02 0.03 0.05 0.06 0.06 0.05 0.03 0.02 0.03 0.03 0.03 0.03 0.02 0.02 0.02 0.02 0.03 0.03 0.04 0.05 0.06 0.06 0.05 0.05 0.06 0.05 0.06 0.07 0.06 0.05 0.05
0.02 0.01 0.01 0.00 0.01 0.01 0.01 0.01 0.01 0.01 0.01 0.02 0.03 0.04 0.05 0.05 0.04 0.04 0.03 0.02 0.02 0.02 0.02 0.02 0.02 0.02 0.02 0.03 0.03 0.05 0.04 0.04 0.04 0.04 0.03 0.03 0.03 0.03 0.03 0.02 0.03 0.03 0.03
0.01 0.01 0.01 0.01 0.01 0.00 0.01 0.01 0.01 0.01 0.02 0.03 0.05 0.06 0.05 0.04 0.02 0.02 0.02 0.02 0.02 0.02 0.02 0.02 0.01 0.01 0.02 0.02 0.03 0.05 0.06 0.05 0.05 0.04 0.04 0.03 0.02 0.01 0.01 0.01 0.01 0.01 0.02
0.00 0.01 0.02 0.03 0.01 0.00 0.00 0.01 0.02 0.02 0.03 0.03 0.03 0.03 0.02 0.01 0.01 0.01 0.01 0.01 0.01 0.02 0.01 0.01 0.01 0.01 0.01 0.02 0.03 0.05 0.06 0.07 0.06 0.05 0.03 0.03 0.02 0.01 0.01 0.01 0.02 0.01 0.01
0.01 0.01 0.02 0.01 0.00 0.01 0.01 0.01 0.01 0.01 0.00 0.01 0.00 0.00 0.00 0.00 0.00 0.01 0.01 0.01 0.00 0.01 0.01 0.00 0.00 0.00 0.01 0.01 0.02 0.03 0.03 0.04 0.03 0.03 0.02 0.02 0.02 0.01 0.02 0.02 0.01 0.01 0.00
0.01 0.01 0.00 0.00 0.00 0.00 0.00 0.00 0.00 0.00 0.00 0.00 0.00 0.00 0.00 0.00 0.00 0.00 0.01 0.00 0.00 0.00 0.01 0.00 0.00 0.00 0.01 0.01 0.02 0.02 0.02 0.02 0.02 0.02 0.02 0.02 0.02 0.01 0.01 0.01 0.00 0.00 0.00
MSLP
1017.74 1017.76 1017.69 1017.56 1017.39 1017.21 1017.08 1016.99 1016.96 1016.98 1017.01 1017.06 1017.09 1017.10 1017.13 1017.16 1017.24 1017.36 1017.53 1017.75 1017.99 1018.23 1018.45 1018.63 1018.78 1018.91 1019.02 1019.13 1019.27 1019.43 1019.62 1019.83 1020.05 1020.26 1020.47 1020.65 1020.82 1020.97 1021.12 1021.26 1021.40 1021.54 1021.69
1017.80 1017.82 1017.75 1017.62 1017.46 1017.31 1017.18 1017.11 1017.09 1017.11 1017.16 1017.20 1017.23 1017.24 1017.24 1017.24 1017.27 1017.34 1017.45 1017.62 1017.83 1018.05 1018.28 1018.49 1018.68 1018.83 1018.97 1019.09 1019.22 1019.36 1019.52 1019.71 1019.90 1020.11 1020.32 1020.52 1020.71 1020.89 1021.05 1021.20 1021.35 1021.49 1021.63
1017.74 1017.76 1017.71 1017.61 1017.49 1017.37 1017.28 1017.23 1017.23 1017.26 1017.31 1017.36 1017.39 1017.38 1017.36 1017.32 1017.29 1017.30 1017.35 1017.46 1017.62 1017.82 1018.03 1018.25 1018.46 1018.64 1018.80 1018.93 1019.06 1019.19 1019.33 1019.48 1019.66 1019.85 1020.06 1020.27 1020.48 1020.67 1020.86 1021.02 1021.17 1021.32 1021.46
1017.61 1017.63 1017.61 1017.55 1017.48 1017.41 1017.36 1017.33 1017.35 1017.38 1017.43 1017.47 1017.49 1017.47 1017.43 1017.36 1017.29 1017.24 1017.23 1017.27 1017.37 1017.52 1017.72 1017.93 1018.14 1018.33 1018.50 1018.65 1018.77 1018.89 1019.00 1019.14 1019.29 1019.47 1019.67 1019.89 1020.11 1020.32 1020.52 1020.69 1020.86 1021.01 1021.15
1017.46 1017.48 1017.49 1017.49 1017.47 1017.44 1017.42 1017.41 1017.43 1017.45 1017.48 1017.51 1017.51 1017.48 1017.42 1017.33 1017.23 1017.14 1017.08 1017.07 1017.11 1017.21 1017.36 1017.55 1017.74 1017.93 1018.10 1018.24 1018.36 1018.46 1018.56 1018.67 1018.81 1018.97 1019.17 1019.38 1019.61 1019.83 1020.03 1020.22 1020.38 1020.54 1020.68
1017.35 1017.37 1017.41 1017.44 1017.46 1017.47 1017.47 1017.46 1017.45 1017.45 1017.45 1017.45 1017.44 1017.41 1017.34 1017.26 1017.15 1017.04 1016.95 1016.90 1016.89 1016.93 1017.03 1017.17 1017.33 1017.50 1017.65 1017.78 1017.88 1017.96 1018.04 1018.13 1018.25 1018.40 1018.59 1018.80 1019.02 1019.24 1019.45 1019.63 1019.79 1019.93 1020.07
1017.31 1017.33 1017.38 1017.43 1017.48 1017.51 1017.51 1017.48 1017.44 1017.39 1017.35 1017.32 1017.29 1017.26 1017.21 1017.15 1017.06 1016.96 1016.86 1016.78 1016.73 1016.73 1016.78 1016.87 1016.98 1017.11 1017.23 1017.33 1017.41 1017.47 1017.53 1017.59 1017.69 1017.82 1017.99 1018.19 1018.41 1018.62 1018.82 1018.98 1019.12 1019.24 1019.35
1017.35 1017.35 1017.41 1017.48 1017.53 1017.56 1017.54 1017.48 1017.40 1017.30 1017.22 1017.15 1017.11 1017.09 1017.07 1017.04 1016.99 1016.92 1016.83 1016.75 1016.68 1016.64 1016.64 1016.68 1016.75 1016.83 1016.91 1016.97 1017.02 1017.06 1017.09 1017.13 1017.21 1017.32 1017.47 1017.65 1017.85 1018.04 1018.20 1018.34 1018.44 1018.51 1018.59
1017.44 1017.43 1017.48 1017.55 1017.60 1017.62 1017.58 1017.49 1017.36 1017.21 1017.09 1016.99 1016.94 1016.93 1016.94 1016.95 1016.95 1016.92 1016.87 1016.80 1016.73 1016.67 1016.64 1016.64 1016.67 1016.72 1016.76 1016.79 1016.81 1016.82 1016.82 1016.83 1016.88 1016.96 1017.08 1017.23 1017.40 1017.55 1017.68 1017.77 1017.81 1017.82 1017.83
1017.54 1017.51 1017.54 1017.61 1017.67 1017.68 1017.62 1017.50 1017.34 1017.15 1016.99 1016.88 1016.82 1016.81 1016.84 1016.89 1016.93 1016.94 1016.93 1016.88 1016.83 1016.78 1016.74 1016.74 1016.75 1016.78 1016.81 1016.82 1016.81 1016.79 1016.76 1016.74 1016.75 1016.79 1016.88 1016.99 1017.11 1017.22 1017.29 1017.31 1017.28 1017.21 1017.13
1017.58 1017.54 1017.57 1017.64 1017.70 1017.71 1017.65 1017.52 1017.34 1017.14 1016.96 1016.82 1016.75 1016.74 1016.78 1016.85 1016.91 1016.96 1016.97 1016.96 1016.93 1016.91 1016.90 1016.91 1016.95 1016.99 1017.03 1017.04 1017.03 1016.99 1016.93 1016.87 1016.83 1016.83 1016.86 1016.91 1016.98 1017.03 1017.04 1016.99 1016.88 1016.71 1016.52
1017.55 1017.50 1017.54 1017.61 1017.69 1017.71 1017.67 1017.55 1017.37 1017.17 1016.98 1016.83 1016.74 1016.72 1016.75 1016.80 1016.87 1016.92 1016.95 1016.97 1016.98 1017.00 1017.05 1017.12 1017.21 1017.30 1017.38 1017.42 1017.42 1017.37 1017.29 1017.19 1017.11 1017.04 1017.01 1017.01 1017.01 1017.00 1016.94 1016.81 1016.61 1016.34 1016.04
1017.42 1017.38 1017.43 1017.53 1017.62 1017.68 1017.67 1017.58 1017.43 1017.24 1017.05 1016.90 1016.78 1016.73 1016.72 1016.74 1016.78 1016.81 1016.85 1016.88 1016.94 1017.02 1017.14 1017.30 1017.48 1017.65 1017.80 1017.90 1017.93 1017.89 1017.80 1017.67 1017.53 1017.41 1017.31 1017.24 1017.18 1017.09 1016.97 1016.77 1016.49 1016.13 1015.72
1017.23 1017.21 1017.28 1017.40 1017.53 1017.63 1017.66 1017.62 1017.50 1017.35 1017.17 1017.00 1016.87 1016.77 1016.71 1016.67 1016.65 1016.65 1016.67 1016.72 1016.81 1016.96 1017.16 1017.42 1017.71 1017.99 1018.23 1018.41 1018.49 1018.48 1018.38 1018.23 1018.05 1017.87 1017.71 1017.58 1017.46 1017.32 1017.13 1016.88 1016.53 1016.10 1015.59
1017.04 1017.04 1017.14 1017.28 1017.44 1017.58 1017.66 1017.66 1017.60 1017.48 1017.32 1017.16 1017.00 1016.85 1016.73 1016.63 1016.54 1016.48 1016.47 1016.51 1016.63 1016.83 1017.12 1017.48 1017.88 1018.28 1018.63 1018.89 1019.04 1019.07 1018.99 1018.83 1018.62 1018.40 1018.19 1018.01 1017.84 1017.66 1017.43 1017.14 1016.75 1016.26 1015.70
1016.89 1016.92 1017.04 1017.20 1017.39 1017.56 1017.68 1017.73 1017.72 1017.64 1017.51 1017.35 1017.17 1016.99 1016.81 1016.64 1016.48 1016.37 1016.31 1016.33 1016.45 1016.69 1017.05 1017.49 1017.99 1018.49 1018.94 1019.29 1019.52 1019.60 1019.55 1019.40 1019.19 1018.95 1018.72 1018.51 1018.31 1018.11 1017.87 1017.56 1017.15 1016.65 1016.05
1016.84 1016.89 1017.01 1017.19 1017.39 1017.58 1017.73 1017.82 1017.84 1017.80 1017.71 1017.57 1017.40 1017.20 1016.98 1016.75 1016.54 1016.36 1016.25 1016.24 1016.35 1016.60 1016.98 1017.48 1018.04 1018.62 1019.14 1019.57 1019.87 1020.02 1020.02 1019.91 1019.72 1019.50 1019.27 1019.07 1018.87 1018.67 1018.44 1018.14 1017.74 1017.25 1016.66
1016.87 1016.94 1017.07 1017.24 1017.44 1017.63 1017.78 1017.90 1017.96 1017.96 1017.90 1017.80 1017.64 1017.45 1017.22 1016.97 1016.71 1016.49 1016.33 1016.28 1016.35 1016.58 1016.95 1017.45 1018.03 1018.64 1019.22 1019.71 1020.07 1020.28 1020.36 1020.31 1020.18 1020.00 1019.82 1019.65 1019.48 1019.31 1019.11 1018.84 1018.48 1018.03 1017.48
1016.96 1017.03 1017.15 1017.31 1017.48 1017.65 1017.81 1017.93 1018.01 1018.05 1018.03 1017.97 1017.86 1017.70 1017.49 1017.24 1016.98 1016.73 1016.53 1016.43 1016.45 1016.62 1016.95 1017.41 1017.97 1018.57 1019.16 1019.68 1020.09 1020.38 1020.53 1020.57 1020.52 1020.43 1020.32 1020.21 1020.11 1019.99 1019.83 1019.62 1019.32 1018.92 1018.43
1017.04 1017.11 1017.21 1017.33 1017.47 1017.62 1017.75 1017.86 1017.95 1018.02 1018.05 1018.05 1017.99 1017.89 1017.73 1017.52 1017.27 1017.02 1016.79 1016.64 1016.61 1016.70 1016.95 1017.33 1017.83 1018.39 1018.96 1019.49 1019.94 1020.28 1020.52 1020.66 1020.72 1020.74 1020.73 1020.71 1020.68 1020.63 1020.55 1020.39 1020.16 1019.83 1019.43
1017.07 1017.11 1017.18 1017.27 1017.37 1017.47 1017.57 1017.66 1017.75 1017.83 1017.91 1017.95 1017.97 1017.94 1017.84 1017.69 1017.49 1017.26 1017.03 1016.85 1016.75 1016.77 1016.92 1017.21 1017.61 1018.10 1018.62 1019.14 1019.61 1020.02 1020.34 1020.59 1020.77 1020.90 1021.01 1021.09 1021.15 1021.18 1021.17 1021.08 1020.92 1020.67 1020.35
1017.00 1017.02 1017.05 1017.10 1017.14 1017.19 1017.25 1017.31 1017.39 1017.48 1017.57 1017.67 1017.75 1017.79 1017.78 1017.70 1017.56 1017.37 1017.16 1016.97 1016.83 1016.77 1016.83 1017.02 1017.32 1017.72 1018.18 1018.67 1019.15 1019.60 1020.00 1020.35 1020.64 1020.89 1021.11 1021.30 1021.46 1021.57 1021.63 1021.61 1021.52 1021.36 1021.13
1016.85 1016.84 1016.83 1016.83 1016.83 1016.83 1016.83 1016.85 1016.90 1016.97 1017.08 1017.20 1017.33 1017.43 1017.50 1017.50 1017.43 1017.30 1017.13 1016.94 1016.78 1016.68 1016.67 1016.76 1016.97 1017.28 1017.68 1018.13 1018.60 1019.08 1019.54 1019.97 1020.36 1020.72 1021.04 1021.32 1021.56 1021.75 1021.87 1021.93 1021.91 1021.83 1021.68
1016.67 1016.62 1016.57 1016.53 1016.49 1016.43 1016.39 1016.36 1016.35 1016.39 1016.48 1016.60 1016.75 1016.90 1017.02 1017.09 1017.10 1017.03 1016.92 1016.76 1016.61 1016.49 1016.44 1016.47 1016.61 1016.85 1017.18 1017.58 1018.04 1018.52 1019.01 1019.49 1019.94 1020.38 1020.77 1021.13 1021.44 1021.69 1021.88 1022.00 1022.06 1022.05 1022.00
1016.54 1016.45 1016.38 1016.31 1016.22 1016.12 1016.01 1015.92 1015.86 1015.84 1015.88 1015.97 1016.10 1016.25 1016.40 1016.52 1016.59 1016.60 1016.54 1016.45 1016.33 1016.23 1016.16 1016.17 1016.26 1016.45 1016.73 1017.09 1017.51 1017.97 1018.46 1018.95 1019.44 1019.91 1020.35 1020.75 1021.11 1021.41 1021.66 1021.84 1021.97 1022.04 1022.08
1016.54 1016.43 1016.34 1016.24 1016.11 1015.96 1015.80 1015.64 1015.49 1015.39 1015.36 1015.38 1015.47 1015.60 1015.74 1015.88 1015.99 1016.05 1016.07 1016.03 1015.97 1015.91 1015.87 1015.88 1015.96 1016.12 1016.36 1016.67 1017.05 1017.47 1017.93 1018.41 1018.89 1019.36 1019.80 1020.22 1020.61 1020.95 1021.24 1021.48 1021.67 1021.82 1021.95
Thickness
5746 5746 5745 5745 5746 5746 5746 5746 5745 5745 5745 5745 5745 5746 5746 5745 5745 5745 5745 5744 5744 5743 5741 5740 5738 5736 5735 5733 5732 5730 5729 5727 5726 5724 5722 5721 5720 5718 5717 5715 5714 5713 5712
5746 5746 5745 5745 5746 5746 5746 5745 5745 5745 5745 5745 5745 5746 5746 5746 5745 5745 5745 5744 5744 5743 5742 5741 5739 5737 5736 5734 5733 5731 5729 5728 5726 5725 5723 5721 5720 5719 5717 5715 5714 5713 5712
5746 5746 5745 5745 5746 5746 5746 5745 5745 5745 5744 5744 5744 5745 5745 5746 5745 5745 5744 5744 5743 5743 5742 5741 5740 5738 5737 5735 5733 5732 5730 5729 5727 5725 5723 5722 5720 5719 5717 5716 5714 5713 5712
5747 5746 5745 5745 5745 5746 5746 5745 5745 5744 5743 5743 5743 5743 5744 5745 5745 5744 5744 5743 5743 5742 5741 5740 5740 5739 5737 5736 5734 5733 5731 5730 5728 5726 5724 5722 5721 5719 5718 5716 5715 5714 5713
5747 5747 5746 5746 5746 5746 5746 5746 5745 5743 5742 5742 5742 5742 5743 5743 5743 5743 5743 5742 5742 5741 5740 5739 5739 5738 5737 5736 5734 5733 5731 5730 5729 5727 5725 5723 5721 5720 5718 5716 5715 5714 5713
5747 5747 5747 5747 5746 5746 5745 5745 5744 5743 5742 5742 5742 5741 5741 5741 5742 5742 5741 5741 5740 5739 5738 5738 5737 5737 5736 5735 5734 5733 5732 5730 5729 5727 5725 5723 5722 5720 5718 5716 5715 5714 5713
5748 5747 5747 5747 5746 5746 5745 5745 5744 5742 5741 5741 5738 5736 5738 5740 5740 5739 5739 5738 5738 5737 5736 5735 5735 5734 5734 5733 5733 5732 5731 5730 5728 5726 5724 5723 5721 5719 5718 5716 5715 5713 5712
5748 5747 5747 5746 5746 5745 5745 5744 5743 5741 5741 5741 5737 5733 5730 5732 5735 5737 5736 5736 5735 5734 5734 5733 5732 5731 5731 5731 5731 5730 5729 5728 5726 5725 5723 5722 5720 5718 5716 5715 5714 5712 5711
5748 5748 5747 5747 5746 5746 5745 5744 5744 5742 5739 5739 5739 5734 5728 5725 5728 5731 5732 5732 5731 5730 5730 5729 5729 5728 5727 5727 5727 5726 5726 5725 5724 5723 5721 5719 5718 5716 5715 5713 5712 5710 5709
5748 5748 5748 5747 5747 5746 5745 5745 5744 5743 5741 5738 5738 5737 5736 5733 5726 5723 5725 5726 5727 5726 5726 5726 5725 5724 5724 5723 5722 5722 5722 5721 5720 5719 5718 5717 5715 5714 5712 5710 5709 5708 5706
5749 5748 5748 5747 5747 5746 5746 5745 5744 5743 5742 5740 5737 5736 5734 5732 5729 5724 5719 5719 5720 5720 5721 5720 5720 5719 5719 5719 5718 5717 5717 5716 5715 5714 5714 5713 5712 5710 5708 5707 5705 5704 5703
5748 5748 5747 5747 5747 5746 5745 5745 5744 5743 5742 5740 5738 5736 5733 5730 5727 5724 5719 5716 5714 5714 5715 5714 5714 5714 5713 5713 5713 5712 5711 5710 5709 5708 5707 5707 5706 5705 5703 5702 5701 5699 5698
5746 5747 5747 5747 5746 5746 5745 5744 5743 5742 5741 5739 5737 5735 5734 5732 5730 5726 5720 5715 5711 5710 5709 5709 5708 5708 5707 5707 5706 5706 5705 5704 5702 5701 5699 5699 5698 5697 5696 5695 5694 5692 5691
5747 5747 5746 5746 5745 5745 5744 5743 5741 5740 5739 5737 5735 5733 5732 5730 5728 5725 5721 5715 5708 5704 5703 5702 5702 5701 5700 5699 5698 5698 5697 5696 5694 5693 5692 5691 5690 5689 5688 5686 5685 5684 5682
5748 5746 5745 5744 5743 5743 5742 5741 5739 5737 5735 5733 5732 5730 5728 5727 5725 5723 5720 5716 5709 5702 5697 5696 5694 5694 5693 5692 5691 5690 5688 5687 5686 5684 5682 5681 5680 5679 5678 5677 5675 5674 5673
5747 5745 5744 5743 5741 5740 5739 5737 5735 5733 5732 5729 5728 5726 5724 5722 5720 5719 5716 5714 5710 5705 5696 5691 5689 5687 5686 5685 5683 5681 5679 5678 5677 5675 5673 5672 5670 5669 5668 5667 5665 5664 5663
5745 5743 5742 5740 5738 5737 5735 5733 5731 5729 5727 5725 5723 5721 5719 5717 5715 5713 5712 5709 5706 5702 5694 5687 5684 5681 5679 5677 5675 5673 5671 5669 5667 5665 5663 5661 5660 5658 5657 5656 5654 5652 5651
5743 5741 5739 5737 5735 5732 5730 5728 5726 5724 5722 5719 5718 5716 5714 5713 5710 5708 5706 5704 5700 5697 5692 5684 5678 5675 5672 5670 5668 5666 5663 5661 5658 5655 5653 5652 5649 5648 5646 5644 5642 5641 5640
5740 5737 5735 5732 5730 5728 5726 5723 5721 5719 5717 5715 5713 5711 5709 5708 5705 5703 5701 5698 5694 5691 5686 5681 5674 5669 5666 5663 5660 5658 5655 5652 5649 5646 5643 5641 5639 5637 5635 5633 5631 5629 5628
5737 5734 5731 5728 5726 5724 5721 5719 5716 5714 5712 5710 5708 5706 5705 5703 5700 5698 5695 5691 5688 5684 5679 5674 5669 5663 5659 5655 5653 5650 5646 5643 5640 5637 5634 5631 5629 5627 5624 5622 5621 5619 5617
5734 5731 5727 5725 5723 5720 5718 5715 5712 5709 5707 5704 5702 5701 5699 5698 5695 5693 5690 5685 5682 5677 5673 5668 5663 5658 5653 5649 5646 5642 5638 5634 5630 5627 5624 5621 5619 5616 5614 5611 5609 5607 5606
5730 5727 5724 5721 5718 5716 5713 5711 5708 5704 5701 5699 5697 5695 5693 5691 5689 5686 5683 5680 5677 5673 5668 5663 5658 5653 5648 5644 5640 5636 5632 5628 5624 5618 5616 5612 5609 5606 5604 5601 5599 5597 5595
5726 5722 5719 5717 5714 5711 5709 5706 5703 5700 5696 5693 5691 5689 5687 5684 5682 5679 5676 5673 5669 5666 5663 5659 5654 5649 5644 5640 5635 5631 5626 5622 5617 5612 5609 5605 5601 5598 5595 5592 5590 5588 5585
5721 5718 5715 5712 5709 5707 5704 5701 5698 5694 5690 5687 5684 5682 5679 5677 5675 5672 5669 5665 5661 5657 5655 5652 5649 5644 5640 5635 5631 5627 5621 5614 5609 5605 5602 5599 5594 5591 5588 5584 5581 5579 5576
5717 5713 5710 5707 5704 5701 5699 5695 5692 5688 5684 5680 5678 5675 5673 5670 5668 5665 5662 5658 5654 5650 5647 5644 5641 5637 5633 5629 5625 5620 5614 5610 5605 5600 5594 5592 5588 5584 5581 5577 5574 5571 5568
5713 5709 5705 5702 5699 5696 5693 5690 5687 5683 5678 5674 5671 5668 5666 5664 5661 5659 5656 5652 5647 5642 5640 5637 5633 5630 5625 5621 5617 5613 5609 5604 5599 5594 5589 5585 5581 5577 5575 5571 5567 5564 5561